Change the Weather History Date:

Friday, September 27, 2013

  Actual Average Record
Temperature  
Mean Temperature 74 °F -  
Max Temperature 84 °F 82 °F 89 °F (2004)
Min Temperature 64 °F 65 °F 48 °F (2001)
Cooling Degree Days 9    
Growing Degree Days 24 (Base 50)    
Moisture  
Dew Point 61 °F    
Average Humidity 62    
Maximum Humidity 89    
Minimum Humidity 42    
Precipitation  
Precipitation 0.00 in - - ()
Sea Level Pressure  
Sea Level Pressure 30.00 in    
Wind  
Wind Speed 7 mph (NE)    
Max Wind Speed 13 mph    
Max Gust Speed 21 mph    
Visibility 10 miles    
Events Rain    
Averages and records for this station are not official NWS values.
T = Trace of Precipitation, MM = Missing Value Source: NWS Daily Summary

Daily Weather History Graph

Daily Weather History Graph

Search for Another Location

Airport or City:

Trip Planner

Search our weather history database for the weather conditions in past years. The results will help you decide how hot, cold, wet, or windy it might be!

Date:

Astronomy

Sep. 27, 2013 Rise Set
Actual Time 6:38 AM CDT 6:36 PM CDT
Civil Twilight 6:14 AM CDT 7:00 PM CDT
Nautical Twilight 5:46 AM CDT 7:28 PM CDT
Astronomical Twilight 5:18 AM CDT 7:56 PM CDT
Moon No Moon Rise 1:53 PM CDT (9/27)
Length of Visible Light 12h 46m
Length of Day
11h 58m
Last Quarter, 45% of the Moon is Illuminated
Sep 27
Last Quarter
Oct 4
New
Oct 11
First Quarter
Oct 18
Full
Oct 26
Last Quarter

Hourly Weather History & Observations

Time (CDT) Temp. Heat Index Dew Point Humidity Pressure Visibility Wind Dir Wind Speed Gust Speed Precip Events Conditions
12:58 AM 70.9 °F - 63.0 °F 76% 29.96 in 10.0 mi East 6.9 mph - N/A   Clear
1:58 AM 69.8 °F - 62.8 °F 78% 29.95 in 10.0 mi ENE 6.9 mph - N/A   Clear
2:58 AM 68.4 °F - 62.1 °F 80% 29.95 in 10.0 mi ENE 4.6 mph - N/A   Clear
3:58 AM 66.0 °F - 62.1 °F 87% 29.96 in 10.0 mi NNE 4.6 mph - N/A   Clear
4:58 AM 65.3 °F - 61.7 °F 88% 29.98 in 10.0 mi NNE 3.5 mph - N/A   Clear
5:58 AM 64.8 °F - 61.3 °F 89% 29.99 in 10.0 mi NE 5.8 mph - N/A   Clear
6:58 AM 64.6 °F - 61.3 °F 89% 30.02 in 10.0 mi NE 5.8 mph - N/A   Clear
7:58 AM 68.2 °F - 62.2 °F 81% 30.04 in 10.0 mi NE 5.8 mph - N/A   Clear
8:58 AM 73.4 °F - 62.4 °F 68% 30.05 in 10.0 mi ENE 9.2 mph - N/A   Clear
9:58 AM 76.8 °F - 61.3 °F 59% 30.05 in 10.0 mi ENE 12.7 mph - N/A   Clear
10:58 AM 78.6 °F - 61.9 °F 56% 30.05 in 10.0 mi Variable 4.6 mph - N/A   Clear
11:58 AM 81.1 °F 82.0 °F 61.3 °F 51% 30.03 in 10.0 mi ENE 10.4 mph - N/A   Partly Cloudy
12:58 PM 82.8 °F 83.3 °F 61.2 °F 48% 30.01 in 10.0 mi NE 9.2 mph - N/A   Clear
1:24 PM 82.4 °F 82.9 °F 60.8 °F 48% 29.98 in 10.0 mi East 8.1 mph - N/A Rain Light Rain
1:26 PM 82.4 °F 82.9 °F 60.8 °F 48% 29.98 in 10.0 mi Variable 3.5 mph - N/A   Clear
1:28 PM 82.4 °F 82.9 °F 60.8 °F 48% 29.98 in 10.0 mi East 5.8 mph - N/A Rain Light Rain
1:34 PM 84.2 °F 84.4 °F 60.8 °F 45% 29.98 in 10.0 mi North 6.9 mph - N/A   Clear
1:58 PM 83.7 °F 83.8 °F 60.1 °F 45% 29.99 in 10.0 mi NE 8.1 mph - 0.00 in   Partly Cloudy
2:58 PM 83.8 °F 83.8 °F 59.5 °F 44% 29.97 in 10.0 mi NE 10.4 mph - N/A   Partly Cloudy
3:16 PM 84.2 °F 83.8 °F 59.0 °F 42% 29.96 in 10.0 mi NE 12.7 mph 20.7 mph N/A   Clear
3:58 PM 84.0 °F 84.2 °F 60.3 °F 45% 29.97 in 10.0 mi ENE 12.7 mph - N/A   Scattered Clouds
4:58 PM 82.8 °F 82.8 °F 59.7 °F 45% 29.97 in 10.0 mi NE 9.2 mph - N/A   Scattered Clouds
5:58 PM 80.4 °F 81.1 °F 59.4 °F 49% 29.98 in 10.0 mi NE 5.8 mph - N/A   Clear
6:58 PM 76.1 °F - 60.4 °F 58% 30.00 in 10.0 mi NE 5.8 mph - N/A   Clear
7:58 PM 73.4 °F - 60.6 °F 64% 30.01 in 10.0 mi NE 5.8 mph - N/A   Clear
8:58 PM 73.0 °F - 59.0 °F 61% 30.03 in 10.0 mi ENE 6.9 mph - N/A   Clear
9:58 PM 72.0 °F - 58.5 °F 62% 30.04 in 10.0 mi ENE 6.9 mph - N/A   Clear
10:58 PM 69.3 °F - 58.8 °F 69% 30.05 in 10.0 mi NE 3.5 mph - N/A   Clear
11:58 PM 67.8 °F - 58.6 °F 72% 30.05 in 10.0 mi NE 5.8 mph - N/A   Clear